Terug naar catalogus

STARLINK-35271

ActiefCommunicatieSSO
NORAD 65812·PAYLOAD·🇺🇸 United States

Gelanceerd Sep 26, 2025 vanaf Vandenberg Space Force Base

Loading…

Volgende Passages (komende 24 uur)

TLE

VersSource: CelesTrak SupGP

Epoch: Sep 14, 2026, 20:38 UTC

1 65812C 25218X   26257.86020833  .00006115  00000+0  18996-3 0  2577
2 65812  97.2844 115.3690 0001628  99.7720 226.1331 15.33413917    10

Volg STARLINK-35271 in realtime met AllMySat

Download on the App Store